sat.trackr.live / text

‹ back to catalog

HULIANWANG DIGUI-69

NORAD 65229 · 2025-178B

PAYLOAD ACTIVE UNKNOWN

§ Identity

Operator
Country
PRC
Launch date
2025-08-17
Launch site
TAISC
Launch vehicle
Mass (kg)
RCS (m²)

External: N2YO · Heavens-Above · Gunter

§ Orbital elements

Epoch: 2026-05-25T03:45:07.159104Z

Period
108.73 min
Inclination
86.5022°
Eccentricity
0.0001698
Mean motion
13.24412885 rev/d
Perigee alt
1,166.6 km
Apogee alt
1,169.2 km
Semi-major
7,546.0 km
B*
9.0584e-5
RAAN
21.3490°
Arg perigee
84.7288°
Mean anomaly
275.4040°
Rev number
3,726

§ Raw data

HULIANWANG DIGUI-691 65229U 25178B   26145.15633286  .00000054  00000+0  90584-4 0  99972 65229  86.5022  21.3490 0001698  84.7288 275.4040 13.24412885 37267

JSON: /api/v1/satellites/65229 · /tle

For live sub-satellite position, see the globe view (requires WebGL).

§ Visibility from observer

Set your observer location to see the next 7 days of passes ≥ 10°. The values pass through the URL so the page stays shareable.

No JS? Fill the form by hand. The geolocation button needs JavaScript.